Printer-friendly version
Follow the MPC on Twitter Follow the MPC on Facebook The MPC blog
Minor Planet Center

MPEC 2010-N54 : 2010 NV1

The following Minor Planet Electronic Circular may be linked-to from your own Web pages, but must not otherwise be redistributed electronically.

A form allowing access to any MPEC is at the bottom of this page.


Read MPEC 2010-N53 Read MPEC 2010-N55


M.P.E.C. 2010-N54                                Issued 2010 July 13, 15:25 UT

     The Minor Planet Electronic Circulars contain information on unusual
         minor planets and routine data on comets.  They are published
   on behalf of Commission 20 of the International Astronomical Union by the
          Minor Planet Center, Smithsonian Astrophysical Observatory,
                          Cambridge, MA 02138, U.S.A.

             Prepared using the Tamkin Foundation Computer Network

                              MPC@CFA.HARVARD.EDU
       URL http://www.minorplanetcenter.org/iau/mpc.html  ISSN 1523-6714

                                   2010 NV1

Observations:
     K10N01V* S2010 07 01.99761 23 45 15.26 +32 51 19.3          20   R EN054C51
     K10N01V  s2010 07 01.99761 1 + 5580.4741 + 1198.5214 + 3881.1500   EN054C51
     K10N01V  S2010 07 02.12991 23 45 13.34 +32 51 25.7                 EN054C51
     K10N01V  s2010 07 02.12991 1 + 5576.6215 + 1211.4177 + 3882.8998   EN054C51
     K10N01V  S2010 07 02.19600 23 45 12.41 +32 51 29.9                 EN054C51
     K10N01V  s2010 07 02.19600 1 + 5550.5904 + 1219.2699 + 3917.4622   EN054C51
     K10N01V  S2010 07 02.72522 23 45 04.17 +32 51 52.4                 EN054C51
     K10N01V  s2010 07 02.72522 1 + 5535.6142 + 1269.6757 + 3922.0518   EN054C51
     K10N01V  S2010 07 02.85752 23 45 02.13 +32 51 58.3                 EN054C51
     K10N01V  s2010 07 02.85752 1 + 5532.5924 + 1282.1301 + 3922.1009   EN054C51
     K10N01V  C2010 07 07.31253323 43 47.54 +32 54 42.9          20.6   EN054H21
     K10N01V  C2010 07 07.32240523 43 47.35 +32 54 43.0          20.5   EN054H21
     K10N01V HC2010 07 07.38394 23 43 46.11 +32 54 46.9                 EN054291
     K10N01V  C2010 07 07.39452 23 43 45.98 +32 54 44.9          20.7 V EN054291
     K10N01V  C2010 07 07.40491 23 43 45.80 +32 54 45.5          20.6 V EN054291
     K10N01V HC2010 07 08.35253 23 43 28.60 +32 55 12.3                 EN054291
     K10N01V HC2010 07 08.36105 23 43 28.40 +32 55 12.6                 EN054291
     K10N01V HC2010 07 08.36936 23 43 28.26 +32 55 12.4                 EN054291
     K10N01V  C2010 07 08.97285 23 43 17.35 +32 55 27.3          20.7 C EN054114
     K10N01V  C2010 07 08.98056 23 43 17.05 +32 55 27.9          20.4 C EN054114
     K10N01V  C2010 07 08.98839 23 43 16.93 +32 55 27.5          20.5 C EN054114
     K10N01V  C2010 07 09.37535 23 43 09.64 +32 55 37.3          20.6 R EN054734
     K10N01V  C2010 07 09.38974 23 43 09.31 +32 55 37.8          20.4 R EN054734
     K10N01V KC2010 07 10.32913323 42 51.39 +32 55 58.5          20.6 V EN054H21
     K10N01V KC2010 07 10.33902123 42 51.20 +32 55 58.6          20.8 V EN054H21
     K10N01V KC2010 07 10.37465323 42 50.47 +32 55 59.6          20.6 V EN054H21
     K10N01V KC2010 07 10.38208423 42 50.33 +32 55 59.6          20.6 V EN054H21
     K10N01V KC2010 07 11.32125523 42 31.94 +32 56 16.8          20.7 V EN054H21
     K10N01V KC2010 07 11.32712123 42 31.81 +32 56 16.8          20.3 V EN054H21
     K10N01V KC2010 07 11.37354123 42 30.88 +32 56 17.8          20.6 V EN054H21
     K10N01V KC2010 07 11.38001023 42 30.73 +32 56 17.8          20.3 V EN054H21
     K10N01V {C2010 07 13.36345 23 41 50.44 +32 56 43.4          20.1 R EN054675
     K10N01V {C2010 07 13.36628 23 41 50.36 +32 56 43.6          20.3 R EN054675
     K10N01V {C2010 07 13.36911 23 41 50.28 +32 56 43.3          20.1 R EN054675
     K10N01V {C2010 07 13.37194 23 41 50.22 +32 56 43.2          20.2 R EN054675
     K10N01V {C2010 07 13.37478 23 41 50.18 +32 56 43.8          20.1 R EN054675
     K10N01V  C2010 07 13.38926 23 41 49.76 +32 56 43.3          20.7 V EN054291
     K10N01V  C2010 07 13.40018 23 41 49.52 +32 56 43.4          20.8 V EN054291
     K10N01V  C2010 07 13.40887 23 41 49.34 +32 56 43.3          20.7 V EN054291

Observer details:
114 Engelhardt Observatory, Zelenchukskaya Station.  Observers T. Kryachko,
    B. Satovski.  Measurer T. Kryachko.  0.3-m f/7.7 reflector + CCD.
291 LPL/Spacewatch II.  Observers T. H. Bressi, J. V. Scotti.  1.8-m f/2.7
    reflector + CCD.
675 Palomar Mountain.  Observers J. M. Bauer, A. N. Wilkins.  Measurer
    J. M. Bauer.
734 Farpoint Observatory.  Observer G. Hug.  0.7-m reflector + CCD.
H21 Astronomical Research Observatory, Westfield.  Observer R. Holmes.
    Measurers S. Foglia, R. Holmes, H. Devore.  0.61-m f/4.5 astrograph + CCD.
C51 WISE.  Measurers A. Mainzer, E. Wright, J. Bauer, T. Grav, J. Dailey, J.
    Masiero, R. Cutri, R. McMillan, R. Walker.
    (http://wise.ssl.berkeley.edu/mission_sci.html)

Orbital elements:
2010 NV1
Epoch 2010 July 23.0 TT = JDT 2455400.5                 MPC
M   0.29635              (2000.0)            P               Q
n   0.00095544     Peri.  111.83266     +0.76136707     +0.48046608
a 102.0942624      Node   136.81554     +0.01082484     -0.68073001
e   0.9088595      Incl.  140.50166     +0.64823067     -0.55295479
P  1030            H   10.3           G   0.15           U   5
Residuals in seconds of arc
100701 C51  1.1-  0.7-    100708 291  0.7-  0.4-    100711 H21  0.7+  0.3+
100702 C51  0.1+  0.3-    100708 114  3.0+  0.8-    100711 H21  0.5+  0.2+
100702 C51  1.2+  0.9+    100708 114  1.0+  0.4-    100713 675  1.1+  0.4+
100702 C51  0.4+  0.3-    100708 114  1.4+  1.0-    100713 675  0.9+  0.6+
100702 C51  0.8+  0.2-    100709 734  1.1+  0.6-    100713 675  0.6+  0.2+
100707 H21  1.0+  0.1+    100709 734  0.5+  0.4-    100713 675  0.6+  0.1+
100707 H21  0.8+  0.1-    100710 H21  0.9+  0.0     100713 675  0.9+  0.7+
100707 291  1.0-  1.9+    100710 H21  0.9+  0.1-    100713 291  0.5-  0.1-
100707 291  0.2-  0.5-    100710 H21  0.6+  0.2+    100713 291  0.6-  0.1-
100707 291  0.1-  0.2-    100710 H21  0.7+  0.0     100713 291  0.6-  0.3-
100708 291  0.3-  0.0     100711 H21  0.8+  0.2+
100708 291  0.9-  0.0     100711 H21  0.6+  0.1+

Ephemeris:
2010 NV1                 a,e,i = 102.09, 0.91, 141               q = 9.3049
Date    TT    R. A. (2000) Decl.     Delta      r     Elong.  Phase     V
2010 07 13    23 41.96   +32 56.7    9.242    9.443    98.4     6.1    20.5
2010 07 23    23 38.12   +32 55.2    9.105    9.453   107.0     5.9    20.4
2010 08 02    23 33.53   +32 46.6    8.978    9.462   115.7     5.5    20.4
2010 08 12    23 28.29   +32 29.9    8.866    9.472   124.1     5.1    20.3
2010 08 22    23 22.53   +32 04.3    8.775    9.482   132.1     4.5    20.3
2010 09 01    23 16.43   +31 29.8    8.707    9.493   139.1     4.0    20.3
2010 09 11    23 10.21   +30 46.3    8.666    9.503   144.5     3.5    20.2
2010 09 21    23 04.07   +29 54.8    8.655    9.514   147.2     3.3    20.2
2010 10 01    22 58.23   +28 56.6    8.675    9.526   146.4     3.3    20.2
2010 10 11    22 52.88   +27 53.3    8.726    9.537   142.5     3.7    20.2
2010 10 21    22 48.18   +26 46.9    8.807    9.549   136.1     4.1    20.3
2010 10 31    22 44.24   +25 39.7    8.914    9.561   128.3     4.7    20.4
2010 11 10    22 41.13   +24 33.6    9.045    9.574   119.7     5.2    20.4
2010 11 20    22 38.87   +23 30.4    9.194    9.586   110.6     5.5    20.5
2010 11 30    22 37.45   +22 31.5    9.358    9.599   101.3     5.8    20.5
2010 12 10    22 36.83   +21 38.2    9.529    9.612    91.9     5.9    20.6
2010 12 20    22 36.94   +20 51.1    9.703    9.626    82.6     5.8    20.6
2010 12 30    22 37.70   +20 10.8    9.875    9.640    73.4     5.6    20.6
2011 01 09    22 39.02   +19 37.2   10.039    9.654    64.3     5.3    20.7

Sonia Keys                   (C) Copyright 2010 MPC           M.P.E.C. 2010-N54

Read MPEC 2010-N53 Read MPEC 2010-N55


MPEC number:

Enter an MPEC number in one of the following forms:

  • 1997-B01 (the full form)
  • J97B01 (the packed version of the full form)
  • B01 (the abbreviated form)

Valid HTML 4.01!